Temp
12 10 9 11 9 12 13 11 12 12 14 14 12 11 12 14 14 14 11 8 9 11 13 16 17 18 17 16 15 14 13 13 11 10 10 9 10 10 9 9 9 9 9 9
10 9 11 11 10 10 10 10 10 11 11 12 11 11 11 12 8 4 3 3 2 5 9 12 13 15 16 16 15 14 14 13 12 11 11 10 10 9 9 9 9 9 9 9
9 11 11 10 10 10 10 10 10 11 12 11 11 10 11 10 4 3 1 1 -0 -1 1 5 9 10 12 14 15 15 14 12 12 11 10 9 8 8 8 8 9 9 9 9
9 11 11 10 11 10 9 10 11 11 12 10 12 10 11 12 5 2 1 -1 -2 -3 -1 1 4 5 7 9 11 11 12 12 11 10 10 9 9 9 9 9 9 8 8 8
11 13 12 10 10 10 11 12 11 11 9 11 10 10 9 4 3 0 0 -3 -4 -5 -4 -3 0 2 4 5 7 9 10 11 11 10 9 9 8 8 8 8 8 8 8 8
9 12 12 11 12 10 12 12 10 7 8 9 10 10 9 0 -1 -1 -2 -4 -5 -6 -5 -3 -2 1 2 3 4 5 6 8 9 9 9 8 8 7 7 7 7 7 7 7
9 11 11 12 12 12 12 10 9 9 7 9 8 9 1 -1 -2 -3 -4 -6 -7 -8 -7 -6 -4 -2 -0 2 3 4 4 5 5 7 7 7 7 6 6 6 6 6 7 7
8 9 12 11 12 12 9 9 8 10 9 9 7 9 1 -2 -3 -5 -6 -7 -8 -9 -8 -8 -6 -5 -4 -2 1 2 3 4 4 4 4 5 6 5 5 5 5 5 5 6
6 8 9 10 11 11 10 9 11 10 10 8 8 -1 -1 -2 -3 -5 -7 -8 -8 -9 -10 -9 -7 -6 -5 -4 -3 -1 0 2 3 4 4 4 3 3 4 4 4 4 4 4
4 5 8 9 11 11 11 10 10 8 9 9 9 5 1 -4 -5 -6 -7 -9 -9 -10 -11 -10 -9 -8 -7 -6 -5 -4 -3 -2 -1 1 2 2 3 3 3 2 2 3 3 3
3 4 6 7 9 9 7 7 5 8 9 10 10 5 -5 -7 -8 -8 -9 -10 -10 -11 -11 -11 -11 -10 -9 -8 -7 -6 -5 -4 -3 -3 -1 -0 1 1 2 2 2 2 2 2
3 1 2 4 6 2 2 2 3 5 6 3 5 -1 -7 -8 -9 -9 -10 -10 -11 -12 -12 -12 -11 -10 -10 -10 -9 -8 -7 -7 -6 -6 -4 -3 -2 -1 -1 -0 0 1 1 1
2 0 -1 4 4 4 2 -1 -1 1 2 2 3 -1 -8 -9 -9 -10 -11 -11 -12 -12 -13 -12 -12 -12 -11 -11 -10 -10 -9 -9 -8 -7 -6 -5 -5 -4 -3 -3 -2 -2 -1 -1
3 -0 -1 -2 -0 -0 -1 -5 -5 -3 -1 -2 -0 -6 -10 -11 -11 -11 -12 -12 -13 -13 -14 -14 -13 -13 -12 -12 -11 -11 -10 -10 -9 -9 -8 -7 -7 -6 -6 -5 -5 -4 -3 -3
-1 -4 -1 -0 -1 -1 -8 -7 -7 -8 -11 -8 -12 -12 -12 -12 -12 -12 -13 -14 -14 -14 -14 -15 -14 -14 -14 -12 -12 -11 -11 -11 -10 -10 -10 -9 -9 -8 -8 -7 -6 -6 -6 -5
-2 -6 -2 -4 -1 -2 -9 -9 -8 -8 -10 -11 -13 -13 -13 -13 -13 -13 -14 -15 -15 -15 -15 -15 -15 -14 -14 -14 -14 -13 -12 -12 -12 -11 -11 -11 -10 -10 -9 -8 -8 -7 -7 -7
-3 -4 -8 -8 -3 -4 -6 -11 -9 -10 -12 -11 -10 -14 -14 -14 -14 -14 -15 -15 -15 -15 -15 -15 -15 -15 -15 -14 -14 -14 -13 -13 -12 -12 -12 -12 -11 -11 -10 -10 -10 -9 -9 -8
-3 -3 -3 -7 -3 -6 -12 -12 -12 -12 -13 -13 -13 -14 -15 -16 -16 -16 -16 -15 -15 -15 -15 -15 -15 -15 -15 -15 -14 -14 -14 -14 -14 -13 -13 -12 -12 -11 -11 -11 -11 -10 -10 -10
-2 -3 -5 -8 -12 -11 -13 -14 -15 -16 -15 -17 -17 -16 -16 -16 -15 -15 -15 -15 -15 -16 -16 -16 -15 -15 -15 -15 -15 -15 -14 -14 -14 -14 -13 -13 -13 -13 -12 -12 -11 -11 -11 -11
-3 -5 -5 -9 -7 -7 -15 -14 -14 -14 -15 -16 -16 -16 -17 -17 -19 -19 -15 -16 -16 -16 -16 -16 -16 -16 -15 -15 -15 -15 -15 -15 -15 -15 -14 -14 -14 -14 -13 -13 -13 -13 -13 -12
-8 -11 -12 -11 -14 -15 -17 -14 -14 -13 -14 -16 -17 -17 -17 -19 -17 -17 -17 -16 -16 -17 -17 -17 -17 -17 -16 -16 -17 -16 -16 -16 -17 -16 -16 -15 -15 -15 -14 -14 -13 -13 -13 -13
-14 -16 -14 -16 -16 -12 -14 -15 -13 -16 -17 -17 -17 -17 -18 -18 -17 -17 -17 -17 -17 -17 -17 -17 -18 -17 -17 -17 -18 -17 -17 -17 -17 -16 -16 -16 -16 -15 -16 -16 -15 -15 -15 -14
-11 -15 -14 -14 -13 -14 -15 -15 -15 -16 -17 -18 -18 -18 -18 -19 -18 -18 -18 -18 -18 -18 -18 -18 -19 -19 -18 -18 -18 -19 -18 -18 -18 -18 -17 -16 -16 -16 -16 -17 -17 -17 -16 -16
-16 -16 -16 -17 -15 -14 -15 -15 -16 -17 -17 -17 -18 -18 -19 -19 -19 -20 -20 -19 -19 -19 -19 -20 -20 -20 -20 -19 -19 -19 -19 -19 -19 -19 -19 -18 -18 -18 -18 -17 -18 -17 -17 -17
-18 -17 -20 -18 -17 -15 -15 -15 -16 -17 -18 -18 -19 -19 -20 -20 -20 -20 -21 -21 -21 -21 -21 -21 -21 -21 -21 -21 -21 -20 -20 -20 -20 -20 -20 -19 -19 -19 -19 -18 -18 -18 -18 -18
-17 -19 -21 -19 -17 -19 -17 -17 -18 -18 -19 -19 -20 -20 -20 -20 -21 -21 -21 -22 -22 -22 -21 -21 -22 -22 -22 -22 -22 -21 -21 -21 -21 -21 -21 -21 -21 -20 -20 -20 -20 -19 -20 -19
Height
1475 1481 1481 1471 1475 1474 1473 1479 1477 1471 1465 1466 1466 1462 1455 1453 1455 1452 1459 1456 1453 1451 1450 1450 1449 1450 1451 1454 1458 1462 1465 1470 1474 1477 1480 1484 1486 1490 1493 1495 1498 1500 1502 1504
1479 1480 1467 1470 1473 1476 1478 1480 1478 1470 1463 1468 1465 1459 1452 1452 1465 1465 1463 1460 1456 1448 1443 1441 1441 1442 1444 1449 1453 1458 1461 1466 1470 1474 1478 1481 1485 1488 1491 1494 1495 1498 1500 1502
1477 1467 1463 1468 1472 1476 1475 1478 1478 1474 1465 1463 1462 1458 1452 1454 1459 1464 1466 1468 1462 1457 1449 1441 1438 1440 1443 1446 1449 1453 1457 1462 1466 1470 1475 1478 1482 1486 1488 1489 1492 1494 1497 1499
1472 1461 1463 1468 1470 1472 1476 1466 1466 1470 1473 1479 1461 1474 1457 1450 1463 1468 1472 1470 1469 1462 1455 1449 1441 1440 1442 1445 1450 1454 1458 1462 1465 1470 1473 1475 1478 1481 1483 1487 1490 1492 1494 1496
1465 1459 1462 1467 1464 1462 1463 1459 1463 1465 1472 1469 1467 1474 1458 1464 1469 1478 1479 1480 1477 1472 1464 1456 1449 1446 1443 1444 1449 1454 1458 1461 1465 1468 1471 1474 1477 1480 1482 1485 1487 1489 1491 1494
1463 1459 1459 1456 1453 1456 1456 1459 1465 1471 1474 1479 1460 1466 1455 1489 1493 1490 1490 1488 1484 1477 1470 1463 1456 1450 1446 1446 1447 1452 1458 1461 1464 1468 1470 1472 1475 1477 1479 1481 1483 1486 1488 1490
1464 1456 1451 1451 1455 1455 1456 1466 1479 1476 1483 1469 1461 1461 1489 1498 1499 1501 1499 1496 1491 1485 1477 1469 1460 1455 1452 1450 1450 1452 1456 1459 1462 1466 1468 1471 1472 1474 1476 1478 1480 1482 1484 1486
1474 1469 1451 1451 1453 1455 1461 1463 1475 1470 1470 1464 1463 1459 1489 1503 1504 1505 1503 1502 1496 1488 1483 1478 1472 1465 1461 1456 1454 1454 1455 1457 1459 1461 1464 1467 1469 1470 1472 1474 1475 1477 1479 1481
1481 1467 1453 1451 1449 1451 1459 1464 1451 1459 1457 1468 1455 1497 1501 1503 1505 1506 1506 1503 1500 1496 1490 1484 1479 1473 1469 1462 1458 1457 1457 1457 1457 1459 1461 1462 1463 1464 1467 1470 1471 1472 1474 1476
1487 1479 1460 1454 1450 1450 1452 1452 1459 1465 1463 1457 1446 1461 1482 1506 1511 1511 1510 1509 1506 1502 1496 1490 1483 1479 1475 1469 1466 1464 1461 1459 1458 1457 1457 1458 1459 1460 1461 1463 1465 1467 1470 1470
1489 1485 1465 1462 1456 1458 1462 1462 1467 1459 1452 1445 1440 1464 1514 1519 1521 1519 1518 1515 1511 1506 1501 1495 1489 1484 1479 1474 1470 1468 1465 1463 1460 1458 1457 1456 1455 1455 1456 1458 1460 1461 1462 1464
1491 1492 1487 1474 1465 1470 1477 1485 1484 1473 1463 1479 1465 1489 1523 1523 1522 1521 1521 1518 1515 1511 1505 1500 1494 1488 1482 1478 1474 1471 1469 1466 1463 1460 1458 1456 1455 1452 1452 1453 1455 1455 1456 1457
1494 1497 1503 1471 1472 1474 1483 1499 1501 1497 1491 1484 1476 1493 1526 1526 1524 1523 1521 1519 1516 1512 1507 1501 1495 1489 1485 1481 1478 1474 1471 1468 1465 1462 1459 1456 1454 1452 1451 1451 1451 1452 1451 1452
1493 1497 1502 1509 1497 1498 1500 1510 1511 1504 1502 1501 1491 1514 1529 1529 1528 1526 1523 1521 1518 1515 1510 1504 1498 1492 1488 1484 1479 1475 1472 1469 1466 1463 1460 1457 1455 1453 1451 1451 1450 1448 1449 1450
1496 1510 1497 1494 1494 1496 1519 1518 1516 1522 1533 1526 1535 1534 1535 1533 1530 1528 1525 1522 1519 1514 1512 1506 1500 1494 1489 1483 1480 1477 1473 1470 1467 1464 1461 1458 1456 1454 1454 1452 1449 1447 1447 1446
1502 1513 1498 1504 1493 1493 1524 1524 1520 1523 1529 1532 1537 1538 1536 1533 1530 1527 1525 1522 1518 1515 1511 1507 1502 1498 1492 1485 1483 1479 1476 1472 1467 1464 1462 1459 1457 1455 1452 1449 1448 1446 1445 1444
1506 1505 1520 1524 1498 1503 1514 1532 1525 1529 1533 1533 1528 1538 1535 1532 1530 1526 1524 1522 1518 1513 1510 1504 1500 1499 1493 1487 1486 1483 1478 1473 1468 1465 1463 1460 1456 1453 1450 1450 1447 1445 1445 1443
1502 1501 1501 1514 1498 1516 1535 1532 1531 1533 1536 1537 1536 1536 1535 1533 1526 1520 1522 1521 1517 1512 1505 1499 1499 1496 1489 1485 1483 1483 1480 1475 1470 1465 1460 1458 1455 1453 1450 1447 1444 1441 1443 1443
1498 1500 1504 1520 1541 1534 1537 1536 1540 1541 1542 1539 1539 1535 1533 1528 1522 1518 1518 1517 1514 1509 1504 1501 1497 1490 1484 1483 1479 1477 1476 1471 1466 1462 1458 1455 1454 1453 1449 1445 1442 1440 1440 1439
1499 1502 1503 1521 1517 1518 1541 1536 1536 1537 1541 1539 1538 1534 1532 1528 1530 1521 1519 1515 1510 1507 1503 1497 1492 1487 1483 1480 1476 1472 1471 1466 1461 1457 1454 1451 1450 1449 1446 1442 1438 1436 1436 1435
1512 1521 1532 1529 1543 1545 1538 1536 1536 1538 1542 1539 1536 1533 1531 1530 1527 1518 1513 1509 1506 1501 1496 1492 1489 1485 1482 1479 1475 1471 1467 1465 1458 1454 1451 1451 1448 1445 1442 1438 1433 1431 1432 1432
1540 1547 1544 1550 1553 1538 1537 1536 1536 1539 1538 1536 1534 1531 1528 1525 1519 1514 1509 1505 1501 1496 1492 1489 1484 1480 1477 1474 1470 1466 1463 1458 1450 1447 1444 1443 1440 1437 1435 1431 1428 1427 1428 1427
1533 1546 1544 1544 1539 1537 1536 1536 1535 1535 1535 1533 1531 1529 1525 1519 1515 1511 1505 1500 1496 1492 1488 1485 1480 1476 1473 1470 1465 1459 1454 1448 1445 1442 1440 1438 1436 1435 1431 1425 1425 1426 1424 1421
1544 1544 1544 1544 1539 1537 1534 1535 1536 1535 1533 1530 1528 1523 1519 1514 1510 1506 1502 1497 1492 1488 1483 1479 1474 1470 1465 1462 1458 1454 1449 1445 1441 1437 1435 1432 1428 1423 1420 1419 1418 1415 1413 1411
1552 1547 1549 1543 1539 1535 1534 1535 1535 1532 1529 1525 1521 1518 1513 1509 1505 1501 1496 1492 1487 1483 1478 1474 1469 1464 1459 1456 1452 1449 1445 1440 1436 1431 1427 1423 1419 1416 1414 1412 1411 1409 1408 1408
1552 1553 1555 1548 1541 1541 1535 1533 1531 1527 1523 1520 1515 1511 1508 1504 1499 1495 1490 1487 1482 1477 1473 1468 1463 1458 1453 1449 1445 1441 1437 1433 1428 1423 1420 1416 1413 1411 1408 1406 1403 1404 1402 1402
Wind_Speed
2 3 10 15 10 3 2 3 5 4 3 3 8 9 13 15 17 19 25 29 29 29 29 25 29 31 30 33 32 32 32 32 31 31 31 30 29 25 23 22 20 19 18 18
3 8 11 4 7 7 6 6 9 8 5 6 8 11 11 8 11 22 28 33 36 33 26 17 16 22 31 31 33 33 33 32 32 31 30 30 28 26 23 22 22 20 20 19
6 6 3 7 4 6 8 8 5 9 5 4 4 8 4 8 20 26 34 30 35 37 37 27 16 11 21 29 32 33 33 31 31 30 30 30 29 27 26 25 24 22 21 21
6 7 7 3 5 8 6 10 12 7 0 4 1 5 5 3 9 18 30 35 37 41 37 31 25 15 7 20 27 31 30 29 30 29 29 30 31 31 30 26 23 23 22 22
6 2 3 4 8 8 8 6 7 4 4 1 4 2 5 6 7 19 23 32 36 37 38 37 32 24 10 2 11 21 25 27 29 28 27 28 29 28 27 25 24 23 23 23
7 3 3 7 4 6 1 3 5 4 3 3 8 8 3 5 6 13 22 28 32 37 38 33 30 27 20 9 6 9 15 21 25 26 25 25 26 27 27 26 25 24 24 24
5 4 3 2 2 2 3 5 3 3 1 7 3 5 5 5 11 13 17 24 29 35 39 39 37 34 29 22 11 5 7 12 17 21 22 23 23 24 25 25 25 24 25 26
2 6 0 3 4 3 5 7 5 4 4 4 4 5 3 8 13 16 18 20 26 36 37 37 35 33 31 27 22 12 3 6 12 16 20 21 21 22 23 24 25 24 24 23
5 5 5 3 2 5 1 4 4 5 4 1 4 3 4 7 12 19 22 24 27 30 34 35 34 33 31 29 26 22 14 5 5 11 16 20 22 22 22 22 23 23 22 23
3 7 5 6 4 1 4 2 3 1 4 8 5 4 3 9 14 15 20 24 25 26 31 34 33 32 30 28 25 21 20 17 11 3 7 13 18 20 20 20 20 21 21 23
4 3 3 7 3 4 6 4 5 3 5 9 12 2 6 9 11 12 18 20 21 23 28 30 30 29 28 26 25 23 21 19 16 12 8 1 6 12 17 19 21 20 19 18
2 2 5 6 5 13 7 6 5 2 5 4 4 2 7 6 9 11 13 18 19 21 25 28 28 28 28 28 26 25 23 21 20 18 14 9 6 2 2 8 13 17 20 22
4 3 5 6 3 8 6 6 4 4 5 3 4 1 7 11 9 12 14 16 19 22 26 29 28 29 28 28 27 24 23 22 20 18 16 14 12 10 8 7 7 7 8 15
7 3 6 5 2 0 3 5 4 1 2 5 5 2 10 11 11 11 14 17 19 23 27 28 28 28 27 25 25 24 23 21 20 18 17 15 14 14 13 11 10 11 12 13
3 3 2 3 8 3 3 3 5 3 2 5 3 3 5 9 11 7 14 19 21 23 25 27 28 28 28 26 25 23 22 21 20 19 17 16 14 12 11 11 10 9 9 10
5 3 4 5 2 4 6 6 6 6 2 3 3 2 5 13 16 13 14 20 21 24 25 26 25 25 25 27 27 25 22 21 21 19 18 16 15 13 12 11 10 9 9 8
3 2 2 4 4 6 1 3 4 3 3 3 0 1 9 9 15 17 14 19 25 26 25 27 26 24 23 22 23 23 21 19 18 17 17 17 16 15 14 13 12 11 11 10
3 1 2 3 1 2 1 3 3 5 3 4 3 4 7 12 25 23 10 18 28 27 27 28 26 25 25 24 21 21 17 16 16 15 14 15 16 16 15 14 14 13 14 14
9 2 1 2 1 3 3 2 2 3 3 1 4 9 18 23 22 3 7 24 29 26 26 26 25 26 26 24 23 21 20 19 18 17 16 17 18 19 17 15 14 13 14 13
5 5 2 3 2 4 3 1 5 5 3 4 6 11 14 17 4 4 19 31 28 25 25 25 24 25 23 23 23 22 23 24 23 22 22 21 21 22 21 18 16 15 15 15
4 4 3 2 1 4 4 7 4 3 2 13 14 17 16 3 10 30 32 30 28 29 27 25 24 23 22 22 21 24 24 22 23 25 25 25 23 23 23 22 19 18 18 18
2 2 1 2 3 4 5 2 3 3 7 17 17 14 19 27 30 30 30 30 31 30 29 27 27 26 26 23 25 28 27 28 30 30 29 27 26 24 23 22 20 19 19 19
2 0 1 3 2 1 6 3 7 3 17 24 18 21 25 25 28 28 31 31 31 30 29 28 27 28 26 28 29 28 30 31 29 29 28 26 25 24 23 21 21 22 21 22
4 8 1 4 2 6 16 9 6 11 27 23 23 26 25 26 26 27 29 29 29 29 29 28 27 28 34 31 30 30 29 29 29 30 28 27 26 23 22 22 22 24 24 23
2 7 4 4 3 8 6 2 17 26 19 29 26 26 25 24 28 26 28 28 28 29 27 25 32 34 31 31 30 28 27 27 28 28 28 28 27 26 26 24 24 23 22 21
6 1 1 3 7 6 19 26 23 19 29 27 26 27 27 24 25 25 27 27 29 26 29 31 29 30 30 29 30 29 27 27 27 29 29 28 26 26 24 24 26 22 20 20
Wind_Direction
161 131 214 208 202 212 160 213 254 254 252 277 234 253 268 280 296 294 357 4 353 336 322 306 278 261 246 235 231 226 224 220 217 215 218 220 222 222 223 223 223 223 222 219
53 236 238 187 209 230 261 282 276 289 248 182 282 272 267 259 53 48 25 15 7 1 357 339 301 273 247 237 230 225 224 221 219 221 224 226 228 227 228 228 226 223 223 221
182 229 81 178 186 205 233 230 236 240 315 256 281 291 328 79 62 35 24 19 15 11 8 12 10 308 254 238 231 226 224 220 221 224 224 226 225 227 227 226 226 225 223 222
236 262 256 167 229 186 262 207 236 247 136 256 141 286 303 73 70 29 18 19 12 10 20 28 33 30 285 245 233 228 227 224 224 225 227 231 232 229 231 232 232 230 228 225
249 277 186 187 222 158 238 178 207 214 195 320 217 212 251 13 15 8 18 16 11 11 16 25 36 41 57 170 238 235 230 227 227 228 233 237 237 238 242 240 235 235 234 230
243 284 266 213 209 177 163 124 51 56 101 255 195 168 265 16 349 358 14 14 11 12 19 30 39 47 55 79 153 206 236 233 229 232 238 242 245 245 244 243 242 240 238 236
324 246 283 178 245 234 123 76 307 307 115 233 352 178 58 66 41 32 19 15 12 14 18 26 32 37 41 50 69 140 199 225 229 237 242 248 251 251 252 253 252 250 247 244
343 328 312 332 190 220 188 172 183 247 228 269 89 231 103 69 53 35 28 19 16 16 20 25 29 32 36 43 50 62 109 221 231 233 234 242 254 256 257 257 255 254 253 253
356 271 319 301 266 152 140 171 224 257 242 290 200 104 150 70 32 26 20 18 16 13 15 20 24 28 29 36 41 43 47 52 235 240 240 240 239 240 251 259 257 254 253 253
41 291 272 314 345 49 177 236 276 346 275 255 250 171 93 10 9 11 15 13 11 11 14 20 23 24 25 29 32 37 41 44 48 63 242 244 244 248 249 248 250 257 261 257
14 223 292 11 312 18 347 353 355 290 239 262 270 195 33 36 20 12 11 12 9 9 11 17 20 23 24 25 26 26 26 28 32 36 43 30 238 241 246 248 249 250 245 248
305 262 280 226 325 73 58 44 28 329 307 284 282 92 36 62 48 33 13 6 6 8 8 15 16 16 19 21 23 23 20 19 19 20 14 8 6 8 248 241 247 243 239 236
332 315 327 331 70 45 39 49 24 285 250 255 315 53 37 20 33 30 16 8 6 3 5 8 10 13 13 13 15 18 18 17 13 10 8 5 1 349 332 316 303 297 272 256
257 228 186 211 170 213 329 35 357 297 241 316 278 113 11 4 356 11 13 7 3 3 2 2 5 6 6 7 8 8 8 9 11 9 4 1 1 0 354 339 315 301 294 290
71 210 294 300 316 333 97 25 34 97 218 172 315 83 353 348 332 3 12 7 4 2 357 358 359 359 358 0 0 360 1 359 360 360 0 2 358 350 341 335 336 329 305 285
2 294 341 295 285 135 104 29 111 63 11 115 163 150 23 341 340 357 358 358 355 352 352 351 353 353 353 355 352 351 351 352 353 353 349 349 345 343 339 334 322 319 312 302
279 196 75 272 126 134 325 7 46 129 70 312 294 246 357 337 328 315 319 351 349 345 341 344 344 343 345 348 344 341 342 342 344 343 342 343 344 342 340 332 326 316 302 288
233 151 211 245 270 247 120 26 54 98 75 25 0 333 322 312 314 305 240 354 342 338 337 337 333 331 336 336 333 329 331 334 334 337 338 336 335 331 329 327 325 321 311 304
205 213 286 127 161 319 338 323 50 98 273 311 294 316 329 334 329 28 188 334 332 331 328 325 325 325 327 328 326 323 321 325 327 326 325 328 329 324 323 322 321 318 309 306
83 36 130 82 152 238 235 269 324 144 292 336 321 307 314 337 11 258 314 323 324 324 326 325 324 323 322 322 321 317 318 320 318 317 318 318 316 313 314 314 313 310 307 304
357 7 73 15 140 296 250 328 130 89 267 337 334 328 326 301 282 306 318 320 324 326 327 325 322 320 320 319 316 316 318 316 314 312 311 309 308 305 303 304 303 301 297 292
89 62 360 61 53 309 351 15 177 146 14 354 343 332 327 317 314 316 318 321 323 324 324 325 322 319 319 318 316 315 313 310 311 309 309 308 307 305 304 302 300 296 292 289
14 158 267 182 237 186 18 292 148 337 352 346 327 326 320 314 314 315 316 320 321 321 321 322 319 316 316 316 318 314 315 314 312 309 307 305 301 298 298 297 293 288 287 288
15 16 234 14 355 310 312 190 242 321 327 325 321 319 318 314 317 316 315 316 318 320 321 320 316 314 315 316 314 312 313 311 309 307 306 306 305 306 300 296 293 292 291 290
281 333 335 274 332 352 73 70 319 313 316 321 321 321 321 319 314 316 317 318 320 320 322 316 311 312 311 314 314 314 313 310 308 306 305 306 306 304 301 296 294 291 287 287
1 278 60 263 307 287 292 311 321 318 321 321 321 321 320 318 318 320 320 320 320 327 311 314 318 317 317 318 318 318 317 314 310 307 307 306 305 302 301 302 299 290 286 282